sat.trackr.live / text

‹ back to catalog

STARLINK-32541

NORAD 61916 · 2024-207E

PAYLOAD ACTIVE UNKNOWN

§ Identity

Operator
Country
US
Launch date
2024-11-11
Launch site
AFETR
Launch vehicle
Mass (kg)
RCS (m²)

Purposes: comms

External: N2YO · Heavens-Above · Gunter

§ Orbital elements

Epoch: 2026-09-21T16:24:07.118208Z

Period
94.27 min
Inclination
42.9991°
Eccentricity
0.0001173
Mean motion
15.27582799 rev/d
Perigee alt
482.2 km
Apogee alt
483.8 km
Semi-major
6,861.2 km
B*
4.5279e-4
RAAN
258.6022°
Arg perigee
266.9898°
Mean anomaly
93.0819°
Rev number
10,465

§ Raw data

STARLINK-325411 61916U 24207E   26264.68341572  .00012220  00000+0  45279-3 0  99902 61916  42.9991 258.6022 0001173 266.9898  93.0819 15.27582799104655

JSON: /api/v1/satellites/61916 · /tle

For live sub-satellite position, see the globe view (requires WebGL).

§ Visibility from observer

Set your observer location to see the next 7 days of passes ≥ 10°. The values pass through the URL so the page stays shareable.

No JS? Fill the form by hand. The geolocation button needs JavaScript.